[Iaude] MPEC M20: 2018 LV5 [a=2.37,e=0.53,i=8.3,H=21.7]

mpec at mpcdb1.cfa.harvard.edu mpec at mpcdb1.cfa.harvard.edu
Sun Jun 17 14:09:20 EDT 2018


M.P.E.C. 2018-M20                                Issued 2018 June 17, 18:04 UT
 
     The Minor Planet Electronic Circulars contain information on unusual
         minor planets and routine data on comets.  They are published
    on behalf of Division F of the International Astronomical Union by the
          Minor Planet Center, Smithsonian Astrophysical Observatory,
                          Cambridge, MA 02138, U.S.A.

             Prepared using the Tamkin Foundation Computer Network

                              MPC at CFA.HARVARD.EDU
            URL https://www.minorplanetcenter.net/    ISSN 1523-6714


                                   2018 LV5
 
Observations:
     K18L05V* C2018 06 12.38426 21 53 40.48 +06 42 13.5          21.0 GUEM020G96
     K18L05V  C2018 06 12.38949 21 53 40.93 +06 42 24.6          20.6 GUEM020G96
     K18L05V  C2018 06 12.39473 21 53 41.36 +06 42 35.0          21.4 GUEM020G96
     K18L05V  C2018 06 12.39998 21 53 41.77 +06 42 44.5          20.8 GUEM020G96
     K18L05V  C2018 06 12.43390 21 53 44.65 +06 43 50.4          20.9 GUEM020I52
     K18L05V  C2018 06 12.43791 21 53 44.99 +06 43 58.7          21.2 GUEM020I52
     K18L05V  C2018 06 12.43956 21 53 45.07 +06 44 01.0          20.9 GUEM020I52
     K18L05V  C2018 06 12.44122 21 53 45.26 +06 44 04.2          21.2 GUEM020I52
     K18L05V  C2018 06 13.42674 21 55 14.47 +07 15 12.8          21.4 GUEM020G96
     K18L05V  C2018 06 13.43316 21 55 14.96 +07 15 24.3          22.1 GUEM020G96
     K18L05V  C2018 06 13.43983 21 55 15.50 +07 15 37.8          21.3 GUEM020G96
     K18L05V  C2018 06 14.43191 21 56 40.54 +07 45 59.1                UEM020G96
     K18L05V  C2018 06 14.43753 21 56 41.02 +07 46 09.3          21.0 GUEM020G96
     K18L05V  C2018 06 14.45804 21 56 42.51 +07 46 46.1          21.5 GUEM020G96
     K18L05V KC2018 06 16.34778921 59 11.94 +08 41 51.2          21.5 VuEM020H21
     K18L05V KC2018 06 16.36347221 59 12.89 +08 42 18.3          21.5 VuEM020H21
 
Observer details:
G96 Mt. Lemmon Survey.  Observer G. J. Leonard.  Measurers B. M. Africano,
    E. J. Christensen, D. C. Fuls, A. R. Gibbs, A. D. Grauer, H. Groeller,
    J. A. Johnson, R. A. Kowalski, S. M. Larson, G. J. Leonard, R. L. Seaman,
    F. C. Shelly.  1.5-m reflector + 10K CCD.
H21 Astronomical Research Observatory, Westfield.  Observer R. Holmes.
    Measurers S. Foglia, L. Buzzi, T. Linder, R. Holmes.  0.76-m f/3.0
    astrograph + CCD.
I52 Steward Observatory, Mt. Lemmon Station.  Observer B. M. Africano.
    Measurers B. M. Africano, E. J. Christensen, D. C. Fuls, A. R. Gibbs,
    A. D. Grauer, H. Groeller, J. A. Johnson, R. A. Kowalski, S. M. Larson,
    G. J. Leonard, R. L. Seaman, F. C. Shelly.  1.0-m reflector + CCD.
 
Orbital elements:
2018 LV5                                                 Earth MOID = 0.0939 AU
Epoch 2018 Mar. 23.0 TT = JDT 2458200.5                 MPC
M 344.29543              (2000.0)            P               Q
n   0.26984482     Peri.   10.40173     -0.32483235     +0.93725529
a   2.3717013      Node   240.74388     -0.87781971     -0.34861528
e   0.5342042      Incl.    8.34596     -0.35201776     +0.00446148
P   3.65           H   21.7           G   0.15           U   9
Residuals in seconds of arc
180612 G96  0.1-  0.7-    180612 I52  0.8-  0.3-    180614 G96  0.4+  0.1+
180612 G96  0.0   0.2+    180612 I52  0.0   0.3-    180614 G96  0.2+  0.3-
180612 G96  0.2-  0.5+    180613 G96  0.4-  0.1+    180616 H21  0.3+  0.2-
180612 G96  0.7-  0.2-    180613 G96  0.6-  0.5-    180616 H21  0.9-  0.2+
180612 I52  0.0   0.0     180613 G96  0.4-  0.5+
180612 I52  0.1+  0.6+    180614 G96  0.6-  0.1+

Ephemeris:
2018 LV5                 a,e,i = 2.37, 0.53, 8                   q = 1.1047
Date    TT    R. A. (2000) Decl.     Delta      r     Elong.  Phase     V
2018 05 18    20 43 39.4 -12 34 21   0.2406  1.1050   106.8    61.2    21.0
...
2018 06 02    21 32 57.0 +00 12 37   0.2701  1.1152   105.1    61.4    21.3
...
2018 06 10    21 49 43.5 +05 22 56   0.2902  1.1322   106.5    59.3    21.4
...
2018 06 16    21 58 44.9 +08 32 12   0.3057  1.1497   108.4    56.9    21.5
2018 06 17    21 59 58.8 +09 00 19   0.3083  1.1530   108.8    56.5    21.5
2018 06 18    22 01 08.3 +09 27 29   0.3108  1.1564   109.3    56.0    21.5
...
2018 06 24    22 06 35.8 +11 51 22   0.3263  1.1790   112.2    53.0    21.6
...
2018 07 02    22 10 10.4 +14 14 50   0.3468  1.2142   117.0    48.2    21.6
...
2018 07 17    22 06 50.4 +16 22 57   0.3865  1.2933   128.6    37.9    21.7

A. U. Tomatic                (C) Copyright 2018 MPC           M.P.E.C. 2018-M20



More information about the Iaude mailing list